owner,sensor,date,latitude,longitude,air_pressure(mBar),qcFlag 
WAVCIS,ioos:station:WAVCIS:CSI09:1,2012-03-01T00:00:00Z,29.1015,-89.9782,1017.39,11111222 
WAVCIS,ioos:station:WAVCIS:CSI09:1,2012-03-01T01:00:00Z,29.1015,-89.9782,1017.11,11111222 
WAVCIS,ioos:station:WAVCIS:CSI09:1,2012-03-01T02:00:00Z,29.1015,-89.9782,1017.14,11111222 
WAVCIS,ioos:station:WAVCIS:CSI09:1,2012-03-01T03:00:00Z,29.1015,-89.9782,1017.32,11111222 
WAVCIS,ioos:station:WAVCIS:CSI09:1,2012-03-01T04:00:00Z,29.1015,-89.9782,1017.05,11111222 
WAVCIS,ioos:station:WAVCIS:CSI09:1,2012-03-01T05:00:00Z,29.1015,-89.9782,1016.49,11111222 
WAVCIS,ioos:station:WAVCIS:CSI09:1,2012-03-01T06:00:00Z,29.1015,-89.9782,1016.35,11111222 
WAVCIS,ioos:station:WAVCIS:CSI09:1,2012-03-01T07:00:00Z,29.1015,-89.9782,1015.98,11111222 
WAVCIS,ioos:station:WAVCIS:CSI09:1,2012-03-01T08:00:00Z,29.1015,-89.9782,1015.58,11111222 
WAVCIS,ioos:station:WAVCIS:CSI09:1,2012-03-01T09:00:00Z,29.1015,-89.9782,1015.39,11111222 
WAVCIS,ioos:station:WAVCIS:CSI09:1,2012-03-01T10:00:00Z,29.1015,-89.9782,1015.9,11111222 
WAVCIS,ioos:station:WAVCIS:CSI09:1,2012-03-01T11:00:00Z,29.1015,-89.9782,1015.87,11111222 
WAVCIS,ioos:station:WAVCIS:CSI09:1,2012-03-01T12:00:00Z,29.1015,-89.9782,1016.3,11111222 
WAVCIS,ioos:station:WAVCIS:CSI09:1,2012-03-01T13:00:00Z,29.1015,-89.9782,1016.3,11111222 
WAVCIS,ioos:station:WAVCIS:CSI09:1,2012-03-01T14:00:00Z,29.1015,-89.9782,1016.68,11111222 
WAVCIS,ioos:station:WAVCIS:CSI09:1,2012-03-01T15:00:00Z,29.1015,-89.9782,1017.08,11111222 
WAVCIS,ioos:station:WAVCIS:CSI09:1,2012-03-01T16:00:00Z,29.1015,-89.9782,1017.33,11111222 
WAVCIS,ioos:station:WAVCIS:CSI09:1,2012-03-01T17:00:00Z,29.1015,-89.9782,1016.8,11111222 
WAVCIS,ioos:station:WAVCIS:CSI09:1,2012-03-01T18:00:00Z,29.1015,-89.9782,1016.18,11111222 
WAVCIS,ioos:station:WAVCIS:CSI09:1,2012-03-01T19:00:00Z,29.1015,-89.9782,1015.43,11111222 
WAVCIS,ioos:station:WAVCIS:CSI09:1,2012-03-01T20:00:00Z,29.1015,-89.9782,1014.25,11111222 
WAVCIS,ioos:station:WAVCIS:CSI09:1,2012-03-01T21:00:00Z,29.1015,-89.9782,1013.51,11111222 
WAVCIS,ioos:station:WAVCIS:CSI09:1,2012-03-01T22:00:00Z,29.1015,-89.9782,1013.17,11111222 
WAVCIS,ioos:station:WAVCIS:CSI09:1,2012-03-01T23:00:00Z,29.1015,-89.9782,1012.92,11111222 
WAVCIS,ioos:station:WAVCIS:CSI09:1,2012-03-02T00:00:00Z,29.1015,-89.9782,1012.98,11111222 
WAVCIS,ioos:station:WAVCIS:CSI09:1,2012-03-02T01:00:00Z,29.1015,-89.9782,1013.01,11111222 
WAVCIS,ioos:station:WAVCIS:CSI09:1,2012-03-02T02:00:00Z,29.1015,-89.9782,1013.08,11111222 
WAVCIS,ioos:station:WAVCIS:CSI09:1,2012-03-02T03:00:00Z,29.1015,-89.9782,1013.07,11111222 
WAVCIS,ioos:station:WAVCIS:CSI09:1,2012-03-02T04:00:00Z,29.1015,-89.9782,1012.61,11111222 
WAVCIS,ioos:station:WAVCIS:CSI09:1,2012-03-02T05:00:00Z,29.1015,-89.9782,1012.06,11111222 
WAVCIS,ioos:station:WAVCIS:CSI09:1,2012-03-02T06:00:00Z,29.1015,-89.9782,1011.45,11111222 
WAVCIS,ioos:station:WAVCIS:CSI09:1,2012-03-02T07:00:00Z,29.1015,-89.9782,1011.03,11111222 
WAVCIS,ioos:station:WAVCIS:CSI09:1,2012-03-02T08:00:00Z,29.1015,-89.9782,1010.8,11111222 
WAVCIS,ioos:station:WAVCIS:CSI09:1,2012-03-02T09:00:00Z,29.1015,-89.9782,1010.31,11111222 
WAVCIS,ioos:station:WAVCIS:CSI09:1,2012-03-02T10:00:00Z,29.1015,-89.9782,1010.46,11111222 
WAVCIS,ioos:station:WAVCIS:CSI09:1,2012-03-02T11:00:00Z,29.1015,-89.9782,1010.58,11111222 
WAVCIS,ioos:station:WAVCIS:CSI09:1,2012-03-02T12:00:00Z,29.1015,-89.9782,1011.03,11111222 
WAVCIS,ioos:station:WAVCIS:CSI09:1,2012-03-02T13:00:00Z,29.1015,-89.9782,1011.13,11111222 
WAVCIS,ioos:station:WAVCIS:CSI09:1,2012-03-02T14:00:00Z,29.1015,-89.9782,1011.02,11111222 
WAVCIS,ioos:station:WAVCIS:CSI09:1,2012-03-02T15:00:00Z,29.1015,-89.9782,1011.39,11111222 
WAVCIS,ioos:station:WAVCIS:CSI09:1,2012-03-02T16:00:00Z,29.1015,-89.9782,1011.77,11111222 
WAVCIS,ioos:station:WAVCIS:CSI09:1,2012-03-02T17:00:00Z,29.1015,-89.9782,1011.59,11111222 
WAVCIS,ioos:station:WAVCIS:CSI09:1,2012-03-02T18:00:00Z,29.1015,-89.9782,1010.95,11111222 
WAVCIS,ioos:station:WAVCIS:CSI09:1,2012-03-02T19:00:00Z,29.1015,-89.9782,1010.27,11111222 
WAVCIS,ioos:station:WAVCIS:CSI09:1,2012-03-02T20:00:00Z,29.1015,-89.9782,1009.51,11111222 
WAVCIS,ioos:station:WAVCIS:CSI09:1,2012-03-02T21:00:00Z,29.1015,-89.9782,1009.5,11111222 
WAVCIS,ioos:station:WAVCIS:CSI09:1,2012-03-02T22:00:00Z,29.1015,-89.9782,1009.05,11111222 
WAVCIS,ioos:station:WAVCIS:CSI09:1,2012-03-02T23:00:00Z,29.1015,-89.9782,1008.92,11111222 
WAVCIS,ioos:station:WAVCIS:CSI09:1,2012-03-03T00:00:00Z,29.1015,-89.9782,1009.12,11111222 
WAVCIS,ioos:station:WAVCIS:CSI09:1,2012-03-03T01:00:00Z,29.1015,-89.9782,1009.0,11111222 
WAVCIS,ioos:station:WAVCIS:CSI09:1,2012-03-03T02:00:00Z,29.1015,-89.9782,1009.15,11111222 
WAVCIS,ioos:station:WAVCIS:CSI09:1,2012-03-03T03:00:00Z,29.1015,-89.9782,1009.05,11111222 
WAVCIS,ioos:station:WAVCIS:CSI09:1,2012-03-03T04:00:00Z,29.1015,-89.9782,1008.87,11111222 
WAVCIS,ioos:station:WAVCIS:CSI09:1,2012-03-03T05:00:00Z,29.1015,-89.9782,1008.77,11111222 
WAVCIS,ioos:station:WAVCIS:CSI09:1,2012-03-03T06:00:00Z,29.1015,-89.9782,1008.43,11111222 
WAVCIS,ioos:station:WAVCIS:CSI09:1,2012-03-03T07:00:00Z,29.1015,-89.9782,1008.08,11111222 
WAVCIS,ioos:station:WAVCIS:CSI09:1,2012-03-03T08:00:00Z,29.1015,-89.9782,1007.97,11111222 
WAVCIS,ioos:station:WAVCIS:CSI09:1,2012-03-03T09:00:00Z,29.1015,-89.9782,1007.5,11111222 
WAVCIS,ioos:station:WAVCIS:CSI09:1,2012-03-03T10:00:00Z,29.1015,-89.9782,1007.17,11111222 
WAVCIS,ioos:station:WAVCIS:CSI09:1,2012-03-03T11:00:00Z,29.1015,-89.9782,1007.032,11111222 
WAVCIS,ioos:station:WAVCIS:CSI09:1,2012-03-03T12:00:00Z,29.1015,-89.9782,1007.037,11111222 
WAVCIS,ioos:station:WAVCIS:CSI09:1,2012-03-03T13:00:00Z,29.1015,-89.9782,1007.22,11111222 
WAVCIS,ioos:station:WAVCIS:CSI09:1,2012-03-03T14:00:00Z,29.1015,-89.9782,1006.928,11111222 
WAVCIS,ioos:station:WAVCIS:CSI09:1,2012-03-03T15:00:00Z,29.1015,-89.9782,1007.72,11111222 
WAVCIS,ioos:station:WAVCIS:CSI09:1,2012-03-03T16:00:00Z,29.1015,-89.9782,1008.28,11111222 
WAVCIS,ioos:station:WAVCIS:CSI09:1,2012-03-03T17:00:00Z,29.1015,-89.9782,1008.87,11111222 
WAVCIS,ioos:station:WAVCIS:CSI09:1,2012-03-03T18:00:00Z,29.1015,-89.9782,1008.66,11111222 
WAVCIS,ioos:station:WAVCIS:CSI09:1,2012-03-03T19:00:00Z,29.1015,-89.9782,1007.85,11111222 
WAVCIS,ioos:station:WAVCIS:CSI09:1,2012-03-03T20:00:00Z,29.1015,-89.9782,1007.52,11111222 
WAVCIS,ioos:station:WAVCIS:CSI09:1,2012-03-03T21:00:00Z,29.1015,-89.9782,1007.53,11111222 
WAVCIS,ioos:station:WAVCIS:CSI09:1,2012-03-03T22:00:00Z,29.1015,-89.9782,1007.9,11111222 
WAVCIS,ioos:station:WAVCIS:CSI09:1,2012-03-03T23:00:00Z,29.1015,-89.9782,1008.27,11111222 
WAVCIS,ioos:station:WAVCIS:CSI09:1,2012-03-04T00:00:00Z,29.1015,-89.9782,1009.6,11111222 
WAVCIS,ioos:station:WAVCIS:CSI09:1,2012-03-04T01:00:00Z,29.1015,-89.9782,1010.97,11111222 
WAVCIS,ioos:station:WAVCIS:CSI09:1,2012-03-04T02:00:00Z,29.1015,-89.9782,1012.47,11111222 
WAVCIS,ioos:station:WAVCIS:CSI09:1,2012-03-04T03:00:00Z,29.1015,-89.9782,1013.9,11111222 
WAVCIS,ioos:station:WAVCIS:CSI09:1,2012-03-04T04:00:00Z,29.1015,-89.9782,1015.67,11111222 
WAVCIS,ioos:station:WAVCIS:CSI09:1,2012-03-04T05:00:00Z,29.1015,-89.9782,1016.75,11111222 
WAVCIS,ioos:station:WAVCIS:CSI09:1,2012-03-04T06:00:00Z,29.1015,-89.9782,1017.1,11111222 
WAVCIS,ioos:station:WAVCIS:CSI09:1,2012-03-04T07:00:00Z,29.1015,-89.9782,1017.69,11111222 
WAVCIS,ioos:station:WAVCIS:CSI09:1,2012-03-04T08:00:00Z,29.1015,-89.9782,1018.04,11111222 
WAVCIS,ioos:station:WAVCIS:CSI09:1,2012-03-04T09:00:00Z,29.1015,-89.9782,1018.71,11111222 
WAVCIS,ioos:station:WAVCIS:CSI09:1,2012-03-04T10:00:00Z,29.1015,-89.9782,1019.51,11111222 
WAVCIS,ioos:station:WAVCIS:CSI09:1,2012-03-04T11:00:00Z,29.1015,-89.9782,1020.21,11111222 
WAVCIS,ioos:station:WAVCIS:CSI09:1,2012-03-04T12:00:00Z,29.1015,-89.9782,1020.72,11111222 
WAVCIS,ioos:station:WAVCIS:CSI09:1,2012-03-04T13:00:00Z,29.1015,-89.9782,1021.09,11111222 
WAVCIS,ioos:station:WAVCIS:CSI09:1,2012-03-04T14:00:00Z,29.1015,-89.9782,1021.52,11111222 
WAVCIS,ioos:station:WAVCIS:CSI09:1,2012-03-04T15:00:00Z,29.1015,-89.9782,1022.73,11111222 
WAVCIS,ioos:station:WAVCIS:CSI09:1,2012-03-04T16:00:00Z,29.1015,-89.9782,1023.01,11111222 
WAVCIS,ioos:station:WAVCIS:CSI09:1,2012-03-04T17:00:00Z,29.1015,-89.9782,1023.36,11111222 
WAVCIS,ioos:station:WAVCIS:CSI09:1,2012-03-04T18:00:00Z,29.1015,-89.9782,1023.04,11111222 
WAVCIS,ioos:station:WAVCIS:CSI09:1,2012-03-04T19:00:00Z,29.1015,-89.9782,1022.87,11111222 
WAVCIS,ioos:station:WAVCIS:CSI09:1,2012-03-04T20:00:00Z,29.1015,-89.9782,1021.9,11111222 
WAVCIS,ioos:station:WAVCIS:CSI09:1,2012-03-04T21:00:00Z,29.1015,-89.9782,1021.41,11111222 
WAVCIS,ioos:station:WAVCIS:CSI09:1,2012-03-04T22:00:00Z,29.1015,-89.9782,1021.42,11111222 
WAVCIS,ioos:station:WAVCIS:CSI09:1,2012-03-04T23:00:00Z,29.1015,-89.9782,1021.78,11111222 
WAVCIS,ioos:station:WAVCIS:CSI09:1,2012-03-05T00:00:00Z,29.1015,-89.9782,1022.02,11111222 
WAVCIS,ioos:station:WAVCIS:CSI09:1,2012-03-05T01:00:00Z,29.1015,-89.9782,1022.36,11111222 
WAVCIS,ioos:station:WAVCIS:CSI09:1,2012-03-05T02:00:00Z,29.1015,-89.9782,1022.89,11111222 
WAVCIS,ioos:station:WAVCIS:CSI09:1,2012-03-05T03:00:00Z,29.1015,-89.9782,1023.61,11111222 
WAVCIS,ioos:station:WAVCIS:CSI09:1,2012-03-05T04:00:00Z,29.1015,-89.9782,1023.99,11111222 
WAVCIS,ioos:station:WAVCIS:CSI09:1,2012-03-05T05:00:00Z,29.1015,-89.9782,1024.44,11111222 
WAVCIS,ioos:station:WAVCIS:CSI09:1,2012-03-05T06:00:00Z,29.1015,-89.9782,1024.69,11111222 
WAVCIS,ioos:station:WAVCIS:CSI09:1,2012-03-05T07:00:00Z,29.1015,-89.9782,1024.97,11111222 
WAVCIS,ioos:station:WAVCIS:CSI09:1,2012-03-05T08:00:00Z,29.1015,-89.9782,1025.05,11111222 
WAVCIS,ioos:station:WAVCIS:CSI09:1,2012-03-05T09:00:00Z,29.1015,-89.9782,1025.06,11111222 
WAVCIS,ioos:station:WAVCIS:CSI09:1,2012-03-05T10:00:00Z,29.1015,-89.9782,1025.31,11111222 
WAVCIS,ioos:station:WAVCIS:CSI09:1,2012-03-05T11:00:00Z,29.1015,-89.9782,1025.83,11111222 
WAVCIS,ioos:station:WAVCIS:CSI09:1,2012-03-05T12:00:00Z,29.1015,-89.9782,1026.56,11111222 
WAVCIS,ioos:station:WAVCIS:CSI09:1,2012-03-05T13:00:00Z,29.1015,-89.9782,1027.16,11111222 
WAVCIS,ioos:station:WAVCIS:CSI09:1,2012-03-05T14:00:00Z,29.1015,-89.9782,1027.99,11111222 
WAVCIS,ioos:station:WAVCIS:CSI09:1,2012-03-05T15:00:00Z,29.1015,-89.9782,1028.53,11111222 
WAVCIS,ioos:station:WAVCIS:CSI09:1,2012-03-05T16:00:00Z,29.1015,-89.9782,1028.86,11111222 
WAVCIS,ioos:station:WAVCIS:CSI09:1,2012-03-05T17:00:00Z,29.1015,-89.9782,1028.88,11111222 
WAVCIS,ioos:station:WAVCIS:CSI09:1,2012-03-05T18:00:00Z,29.1015,-89.9782,1028.62,11111222 
WAVCIS,ioos:station:WAVCIS:CSI09:1,2012-03-05T19:00:00Z,29.1015,-89.9782,1028.05,11111222 
WAVCIS,ioos:station:WAVCIS:CSI09:1,2012-03-05T20:00:00Z,29.1015,-89.9782,1027.31,11111222 
WAVCIS,ioos:station:WAVCIS:CSI09:1,2012-03-05T21:00:00Z,29.1015,-89.9782,1027.02,11111222 
WAVCIS,ioos:station:WAVCIS:CSI09:1,2012-03-05T22:00:00Z,29.1015,-89.9782,1026.84,11111222 
WAVCIS,ioos:station:WAVCIS:CSI09:1,2012-03-05T23:00:00Z,29.1015,-89.9782,1026.87,11111222 
WAVCIS,ioos:station:WAVCIS:CSI09:1,2012-03-06T00:00:00Z,29.1015,-89.9782,1027.02,11111222 
WAVCIS,ioos:station:WAVCIS:CSI09:1,2012-03-06T01:00:00Z,29.1015,-89.9782,1027.22,11111222 
WAVCIS,ioos:station:WAVCIS:CSI09:1,2012-03-06T02:00:00Z,29.1015,-89.9782,1027.5,11111222 
WAVCIS,ioos:station:WAVCIS:CSI09:1,2012-03-06T03:00:00Z,29.1015,-89.9782,1028.12,11111222 
WAVCIS,ioos:station:WAVCIS:CSI09:1,2012-03-06T04:00:00Z,29.1015,-89.9782,1028.04,11111222 
WAVCIS,ioos:station:WAVCIS:CSI09:1,2012-03-06T05:00:00Z,29.1015,-89.9782,1027.69,11111222 
WAVCIS,ioos:station:WAVCIS:CSI09:1,2012-03-06T06:00:00Z,29.1015,-89.9782,1027.42,11111222 
WAVCIS,ioos:station:WAVCIS:CSI09:1,2012-03-06T07:00:00Z,29.1015,-89.9782,1027.17,11111222 
WAVCIS,ioos:station:WAVCIS:CSI09:1,2012-03-06T08:00:00Z,29.1015,-89.9782,1026.92,11111222 
WAVCIS,ioos:station:WAVCIS:CSI09:1,2012-03-06T09:00:00Z,29.1015,-89.9782,1026.63,11111222 
WAVCIS,ioos:station:WAVCIS:CSI09:1,2012-03-06T10:00:00Z,29.1015,-89.9782,1026.81,11111222 
WAVCIS,ioos:station:WAVCIS:CSI09:1,2012-03-06T11:00:00Z,29.1015,-89.9782,1027.07,11111222 
WAVCIS,ioos:station:WAVCIS:CSI09:1,2012-03-06T12:00:00Z,29.1015,-89.9782,1027.18,11111222 
WAVCIS,ioos:station:WAVCIS:CSI09:1,2012-03-06T13:00:00Z,29.1015,-89.9782,1027.32,11111222 
WAVCIS,ioos:station:WAVCIS:CSI09:1,2012-03-06T14:00:00Z,29.1015,-89.9782,1027.61,11111222 
WAVCIS,ioos:station:WAVCIS:CSI09:1,2012-03-06T15:00:00Z,29.1015,-89.9782,1027.93,11111222 
WAVCIS,ioos:station:WAVCIS:CSI09:1,2012-03-06T16:00:00Z,29.1015,-89.9782,1028.26,11111222 
WAVCIS,ioos:station:WAVCIS:CSI09:1,2012-03-06T17:00:00Z,29.1015,-89.9782,1028.3,11111222 
WAVCIS,ioos:station:WAVCIS:CSI09:1,2012-03-06T18:00:00Z,29.1015,-89.9782,1027.66,11111222 
WAVCIS,ioos:station:WAVCIS:CSI09:1,2012-03-06T19:00:00Z,29.1015,-89.9782,1026.94,11111222 
WAVCIS,ioos:station:WAVCIS:CSI09:1,2012-03-06T20:00:00Z,29.1015,-89.9782,1026.28,11111222 
WAVCIS,ioos:station:WAVCIS:CSI09:1,2012-03-06T21:00:00Z,29.1015,-89.9782,1025.88,11111222 
WAVCIS,ioos:station:WAVCIS:CSI09:1,2012-03-06T22:00:00Z,29.1015,-89.9782,1025.44,11111222 
WAVCIS,ioos:station:WAVCIS:CSI09:1,2012-03-06T23:00:00Z,29.1015,-89.9782,1025.22,11111222 
WAVCIS,ioos:station:WAVCIS:CSI09:1,2012-03-07T00:00:00Z,29.1015,-89.9782,1024.81,11111222 
WAVCIS,ioos:station:WAVCIS:CSI09:1,2012-03-07T01:00:00Z,29.1015,-89.9782,1024.82,11111222 
WAVCIS,ioos:station:WAVCIS:CSI09:1,2012-03-07T02:00:00Z,29.1015,-89.9782,1024.73,11111222 
WAVCIS,ioos:station:WAVCIS:CSI09:1,2012-03-07T03:00:00Z,29.1015,-89.9782,1025.44,11111222 
WAVCIS,ioos:station:WAVCIS:CSI09:1,2012-03-07T04:00:00Z,29.1015,-89.9782,1025.52,11111222 
WAVCIS,ioos:station:WAVCIS:CSI09:1,2012-03-07T05:00:00Z,29.1015,-89.9782,1025.22,11111222 
WAVCIS,ioos:station:WAVCIS:CSI09:1,2012-03-07T06:00:00Z,29.1015,-89.9782,1024.29,11111222 
WAVCIS,ioos:station:WAVCIS:CSI09:1,2012-03-07T07:00:00Z,29.1015,-89.9782,1023.9,11111222 
WAVCIS,ioos:station:WAVCIS:CSI09:1,2012-03-07T08:00:00Z,29.1015,-89.9782,1023.24,11111222 
WAVCIS,ioos:station:WAVCIS:CSI09:1,2012-03-07T09:00:00Z,29.1015,-89.9782,1022.75,11111222 
WAVCIS,ioos:station:WAVCIS:CSI09:1,2012-03-07T10:00:00Z,29.1015,-89.9782,1022.11,11111222 
WAVCIS,ioos:station:WAVCIS:CSI09:1,2012-03-07T11:00:00Z,29.1015,-89.9782,1022.02,11111222 
WAVCIS,ioos:station:WAVCIS:CSI09:1,2012-03-07T12:00:00Z,29.1015,-89.9782,1022.43,11111222 
WAVCIS,ioos:station:WAVCIS:CSI09:1,2012-03-07T13:00:00Z,29.1015,-89.9782,1022.75,11111222 
WAVCIS,ioos:station:WAVCIS:CSI09:1,2012-03-07T14:00:00Z,29.1015,-89.9782,1023.21,11111222 
WAVCIS,ioos:station:WAVCIS:CSI09:1,2012-03-07T15:00:00Z,29.1015,-89.9782,1023.86,11111222 
WAVCIS,ioos:station:WAVCIS:CSI09:1,2012-03-07T16:00:00Z,29.1015,-89.9782,1023.96,11111222 
WAVCIS,ioos:station:WAVCIS:CSI09:1,2012-03-07T17:00:00Z,29.1015,-89.9782,1023.99,11111222 
WAVCIS,ioos:station:WAVCIS:CSI09:1,2012-03-07T18:00:00Z,29.1015,-89.9782,1023.55,11111222 
WAVCIS,ioos:station:WAVCIS:CSI09:1,2012-03-07T19:00:00Z,29.1015,-89.9782,1023.17,11111222 
WAVCIS,ioos:station:WAVCIS:CSI09:1,2012-03-07T20:00:00Z,29.1015,-89.9782,1022.83,11111222 
WAVCIS,ioos:station:WAVCIS:CSI09:1,2012-03-07T21:00:00Z,29.1015,-89.9782,1022.38,11111222 
WAVCIS,ioos:station:WAVCIS:CSI09:1,2012-03-07T22:00:00Z,29.1015,-89.9782,1022.17,11111222 
WAVCIS,ioos:station:WAVCIS:CSI09:1,2012-03-07T23:00:00Z,29.1015,-89.9782,1021.83,11111222 
WAVCIS,ioos:station:WAVCIS:CSI09:1,2012-03-08T00:00:00Z,29.1015,-89.9782,1021.59,11111222 
WAVCIS,ioos:station:WAVCIS:CSI09:1,2012-03-08T01:00:00Z,29.1015,-89.9782,1021.68,11111222 
WAVCIS,ioos:station:WAVCIS:CSI09:1,2012-03-08T02:00:00Z,29.1015,-89.9782,1022.05,11111222 
WAVCIS,ioos:station:WAVCIS:CSI09:1,2012-03-08T03:00:00Z,29.1015,-89.9782,1021.84,11111222 
WAVCIS,ioos:station:WAVCIS:CSI09:1,2012-03-08T04:00:00Z,29.1015,-89.9782,1021.72,11111222 
WAVCIS,ioos:station:WAVCIS:CSI09:1,2012-03-08T05:00:00Z,29.1015,-89.9782,1021.54,11111222 
WAVCIS,ioos:station:WAVCIS:CSI09:1,2012-03-08T06:00:00Z,29.1015,-89.9782,1021.09,11111222 
WAVCIS,ioos:station:WAVCIS:CSI09:1,2012-03-08T07:00:00Z,29.1015,-89.9782,1020.86,11111222 
WAVCIS,ioos:station:WAVCIS:CSI09:1,2012-03-08T08:00:00Z,29.1015,-89.9782,1020.02,11111222 
WAVCIS,ioos:station:WAVCIS:CSI09:1,2012-03-08T09:00:00Z,29.1015,-89.9782,1019.76,11111222 
WAVCIS,ioos:station:WAVCIS:CSI09:1,2012-03-08T10:00:00Z,29.1015,-89.9782,1019.73,11111222 
WAVCIS,ioos:station:WAVCIS:CSI09:1,2012-03-08T11:00:00Z,29.1015,-89.9782,1019.83,11111222 
WAVCIS,ioos:station:WAVCIS:CSI09:1,2012-03-08T12:00:00Z,29.1015,-89.9782,1020.17,11111222 
WAVCIS,ioos:station:WAVCIS:CSI09:1,2012-03-08T13:00:00Z,29.1015,-89.9782,1020.3,11111222 
WAVCIS,ioos:station:WAVCIS:CSI09:1,2012-03-08T14:00:00Z,29.1015,-89.9782,1020.77,11111222 
WAVCIS,ioos:station:WAVCIS:CSI09:1,2012-03-08T15:00:00Z,29.1015,-89.9782,1021.23,11111222 
WAVCIS,ioos:station:WAVCIS:CSI09:1,2012-03-08T16:00:00Z,29.1015,-89.9782,1021.56,11111222 
WAVCIS,ioos:station:WAVCIS:CSI09:1,2012-03-08T17:00:00Z,29.1015,-89.9782,1021.62,11111222 
WAVCIS,ioos:station:WAVCIS:CSI09:1,2012-03-08T18:00:00Z,29.1015,-89.9782,1020.92,11111222 
WAVCIS,ioos:station:WAVCIS:CSI09:1,2012-03-08T19:00:00Z,29.1015,-89.9782,1020.37,11111222 
WAVCIS,ioos:station:WAVCIS:CSI09:1,2012-03-08T20:00:00Z,29.1015,-89.9782,1019.96,11111222 
WAVCIS,ioos:station:WAVCIS:CSI09:1,2012-03-08T21:00:00Z,29.1015,-89.9782,1019.68,11111222 
WAVCIS,ioos:station:WAVCIS:CSI09:1,2012-03-08T22:00:00Z,29.1015,-89.9782,1019.45,11111222 
WAVCIS,ioos:station:WAVCIS:CSI09:1,2012-03-08T23:00:00Z,29.1015,-89.9782,1019.34,11111222 
WAVCIS,ioos:station:WAVCIS:CSI09:1,2012-03-09T00:00:00Z,29.1015,-89.9782,1019.08,11111222 
WAVCIS,ioos:station:WAVCIS:CSI09:1,2012-03-09T01:00:00Z,29.1015,-89.9782,1019.21,11111222 
WAVCIS,ioos:station:WAVCIS:CSI09:1,2012-03-09T02:00:00Z,29.1015,-89.9782,1019.52,11111222 
WAVCIS,ioos:station:WAVCIS:CSI09:1,2012-03-09T03:00:00Z,29.1015,-89.9782,1019.67,11111222 
WAVCIS,ioos:station:WAVCIS:CSI09:1,2012-03-09T04:00:00Z,29.1015,-89.9782,1019.07,11111222 
WAVCIS,ioos:station:WAVCIS:CSI09:1,2012-03-09T05:00:00Z,29.1015,-89.9782,1019.28,11111222 
WAVCIS,ioos:station:WAVCIS:CSI09:1,2012-03-09T06:00:00Z,29.1015,-89.9782,1018.76,11111222 
WAVCIS,ioos:station:WAVCIS:CSI09:1,2012-03-09T07:00:00Z,29.1015,-89.9782,1018.83,11111222 
WAVCIS,ioos:station:WAVCIS:CSI09:1,2012-03-09T08:00:00Z,29.1015,-89.9782,1018.68,11111222 
WAVCIS,ioos:station:WAVCIS:CSI09:1,2012-03-09T09:00:00Z,29.1015,-89.9782,1019.07,11111222 
WAVCIS,ioos:station:WAVCIS:CSI09:1,2012-03-09T10:00:00Z,29.1015,-89.9782,1019.17,11111222 
WAVCIS,ioos:station:WAVCIS:CSI09:1,2012-03-09T11:00:00Z,29.1015,-89.9782,1019.73,11111222 
WAVCIS,ioos:station:WAVCIS:CSI09:1,2012-03-09T12:00:00Z,29.1015,-89.9782,1020.11,11111222 
WAVCIS,ioos:station:WAVCIS:CSI09:1,2012-03-09T13:00:00Z,29.1015,-89.9782,1020.74,11111222 
WAVCIS,ioos:station:WAVCIS:CSI09:1,2012-03-09T14:00:00Z,29.1015,-89.9782,1021.24,11111222 
WAVCIS,ioos:station:WAVCIS:CSI09:1,2012-03-09T15:00:00Z,29.1015,-89.9782,1022.21,11111222 
WAVCIS,ioos:station:WAVCIS:CSI09:1,2012-03-09T16:00:00Z,29.1015,-89.9782,1022.88,11111222 
WAVCIS,ioos:station:WAVCIS:CSI09:1,2012-03-09T17:00:00Z,29.1015,-89.9782,1023.48,11111222 
WAVCIS,ioos:station:WAVCIS:CSI09:1,2012-03-09T18:00:00Z,29.1015,-89.9782,1022.7,11111222 
WAVCIS,ioos:station:WAVCIS:CSI09:1,2012-03-09T19:00:00Z,29.1015,-89.9782,1021.57,11111222 
WAVCIS,ioos:station:WAVCIS:CSI09:1,2012-03-09T20:00:00Z,29.1015,-89.9782,1020.66,11111222 
WAVCIS,ioos:station:WAVCIS:CSI09:1,2012-03-09T21:00:00Z,29.1015,-89.9782,1020.13,11111222 
WAVCIS,ioos:station:WAVCIS:CSI09:1,2012-03-09T22:00:00Z,29.1015,-89.9782,1021.31,11111222 
WAVCIS,ioos:station:WAVCIS:CSI09:1,2012-03-09T23:00:00Z,29.1015,-89.9782,1021.04,11111222 
WAVCIS,ioos:station:WAVCIS:CSI09:1,2012-03-10T00:00:00Z,29.1015,-89.9782,1021.73,11111222 
WAVCIS,ioos:station:WAVCIS:CSI09:1,2012-03-10T01:00:00Z,29.1015,-89.9782,1022.49,11111222 
WAVCIS,ioos:station:WAVCIS:CSI09:1,2012-03-10T02:00:00Z,29.1015,-89.9782,1022.66,11111222 
WAVCIS,ioos:station:WAVCIS:CSI09:1,2012-03-10T03:00:00Z,29.1015,-89.9782,1023.33,11111222 
WAVCIS,ioos:station:WAVCIS:CSI09:1,2012-03-10T04:00:00Z,29.1015,-89.9782,1023.66,11111222 
WAVCIS,ioos:station:WAVCIS:CSI09:1,2012-03-10T05:00:00Z,29.1015,-89.9782,1024.03,11111222 
WAVCIS,ioos:station:WAVCIS:CSI09:1,2012-03-10T06:00:00Z,29.1015,-89.9782,1023.64,11111222 
WAVCIS,ioos:station:WAVCIS:CSI09:1,2012-03-10T07:00:00Z,29.1015,-89.9782,1023.53,11111222 
WAVCIS,ioos:station:WAVCIS:CSI09:1,2012-03-10T08:00:00Z,29.1015,-89.9782,1022.66,11111222 
WAVCIS,ioos:station:WAVCIS:CSI09:1,2012-03-10T09:00:00Z,29.1015,-89.9782,1021.27,11111222 
WAVCIS,ioos:station:WAVCIS:CSI09:1,2012-03-10T10:00:00Z,29.1015,-89.9782,1021.28,11111222 
WAVCIS,ioos:station:WAVCIS:CSI09:1,2012-03-10T11:00:00Z,29.1015,-89.9782,1022.19,11111222 
WAVCIS,ioos:station:WAVCIS:CSI09:1,2012-03-10T12:00:00Z,29.1015,-89.9782,1023.29,11111222 
WAVCIS,ioos:station:WAVCIS:CSI09:1,2012-03-10T13:00:00Z,29.1015,-89.9782,1024.33,11111222 
WAVCIS,ioos:station:WAVCIS:CSI09:1,2012-03-10T14:00:00Z,29.1015,-89.9782,1024.34,11111222 
WAVCIS,ioos:station:WAVCIS:CSI09:1,2012-03-10T15:00:00Z,29.1015,-89.9782,1024.05,11111222 
WAVCIS,ioos:station:WAVCIS:CSI09:1,2012-03-10T16:00:00Z,29.1015,-89.9782,1024.09,11111222 
WAVCIS,ioos:station:WAVCIS:CSI09:1,2012-03-10T17:00:00Z,29.1015,-89.9782,1023.64,11111222 
WAVCIS,ioos:station:WAVCIS:CSI09:1,2012-03-10T18:00:00Z,29.1015,-89.9782,1023.37,11111222 
WAVCIS,ioos:station:WAVCIS:CSI09:1,2012-03-10T19:00:00Z,29.1015,-89.9782,1022.42,11111222 
WAVCIS,ioos:station:WAVCIS:CSI09:1,2012-03-10T20:00:00Z,29.1015,-89.9782,1021.57,11111222 
WAVCIS,ioos:station:WAVCIS:CSI09:1,2012-03-10T21:00:00Z,29.1015,-89.9782,1021.23,11111222 
WAVCIS,ioos:station:WAVCIS:CSI09:1,2012-03-10T22:00:00Z,29.1015,-89.9782,1021.1,11111222 
WAVCIS,ioos:station:WAVCIS:CSI09:1,2012-03-10T23:00:00Z,29.1015,-89.9782,1021.43,11111222 
WAVCIS,ioos:station:WAVCIS:CSI09:1,2012-03-11T00:00:00Z,29.1015,-89.9782,1021.08,11111222 
WAVCIS,ioos:station:WAVCIS:CSI09:1,2012-03-11T01:00:00Z,29.1015,-89.9782,1021.14,11111222 
WAVCIS,ioos:station:WAVCIS:CSI09:1,2012-03-11T02:00:00Z,29.1015,-89.9782,1021.78,11111222 
WAVCIS,ioos:station:WAVCIS:CSI09:1,2012-03-11T03:00:00Z,29.1015,-89.9782,1022.01,11111222 
WAVCIS,ioos:station:WAVCIS:CSI09:1,2012-03-11T04:00:00Z,29.1015,-89.9782,1021.76,11111222 
WAVCIS,ioos:station:WAVCIS:CSI09:1,2012-03-11T05:00:00Z,29.1015,-89.9782,1021.47,11111222 
WAVCIS,ioos:station:WAVCIS:CSI09:1,2012-03-11T06:00:00Z,29.1015,-89.9782,1021.14,11111222 
WAVCIS,ioos:station:WAVCIS:CSI09:1,2012-03-11T07:00:00Z,29.1015,-89.9782,1021.05,11111222 
WAVCIS,ioos:station:WAVCIS:CSI09:1,2012-03-11T08:00:00Z,29.1015,-89.9782,1020.5,11111222 
WAVCIS,ioos:station:WAVCIS:CSI09:1,2012-03-11T09:00:00Z,29.1015,-89.9782,1020.43,11111222 
WAVCIS,ioos:station:WAVCIS:CSI09:1,2012-03-11T10:00:00Z,29.1015,-89.9782,1020.42,11111222 
WAVCIS,ioos:station:WAVCIS:CSI09:1,2012-03-11T11:00:00Z,29.1015,-89.9782,1020.93,11111222 
WAVCIS,ioos:station:WAVCIS:CSI09:1,2012-03-11T12:00:00Z,29.1015,-89.9782,1021.37,11111222 
WAVCIS,ioos:station:WAVCIS:CSI09:1,2012-03-11T13:00:00Z,29.1015,-89.9782,1021.65,11111222 
WAVCIS,ioos:station:WAVCIS:CSI09:1,2012-03-11T14:00:00Z,29.1015,-89.9782,1022.1,11111222 
WAVCIS,ioos:station:WAVCIS:CSI09:1,2012-03-11T15:00:00Z,29.1015,-89.9782,1022.25,11111222 
WAVCIS,ioos:station:WAVCIS:CSI09:1,2012-03-11T16:00:00Z,29.1015,-89.9782,1022.44,11111222 
WAVCIS,ioos:station:WAVCIS:CSI09:1,2012-03-11T17:00:00Z,29.1015,-89.9782,1022.39,11111222 
WAVCIS,ioos:station:WAVCIS:CSI09:1,2012-03-11T18:00:00Z,29.1015,-89.9782,1021.6,11111222 
WAVCIS,ioos:station:WAVCIS:CSI09:1,2012-03-11T19:00:00Z,29.1015,-89.9782,1020.69,11111222 
WAVCIS,ioos:station:WAVCIS:CSI09:1,2012-03-11T20:00:00Z,29.1015,-89.9782,1019.71,11111222 
WAVCIS,ioos:station:WAVCIS:CSI09:1,2012-03-11T21:00:00Z,29.1015,-89.9782,1019.57,11111222 
WAVCIS,ioos:station:WAVCIS:CSI09:1,2012-03-11T22:00:00Z,29.1015,-89.9782,1019.75,11111222 